contact:dominique.lefevre@mio.osupytheas.fr, maurice.libes@osupytheas.fr
Project:EMSO Ligure-ouest http://www.emso-fr.org/EMSO-France
Sensor Aquadopp, line 13 Serial AQD14315 
DOI : "https://doi.org/10.17882/74513; https://doi.org/10.17882/83244" 
Title:EMSO Ligure Ouest : Data ligne ALBATROSS capteur AQUADOPP - deploiement 2021
Id,Date,Profondeur,Latitude,Longitude,X_East,Y_North,Z_Up,Amplitude_X,Amplitude_Y,Amplitude_Z,Batterie,SoundSpeed,Heading,Pitch,Roll,Pressure,Temperature,Speed,Direction
, , m, degrees North, degrees East, m.s-1, m.s-1,m.s-1, 1, 1, 1, Volt, m.s-1, degree, degree, degree, dbar, degree_C, m.s-1, degree
13,2023-03-22T23:30:00,2400.0,42.79,6.0312,-0.007,0.018,-0.002,60.0,57.0,57.0,12.3,1504.9,93.4,-0.2,-0.6,2392.97,13.34,0.019,338.8
13,2023-03-23T00:00:00,2400.0,42.79,6.0312,0.015,0.022,0.001,60.0,54.0,60.0,12.3,1504.9,96.5,-0.1,-0.7,2392.913,13.34,0.026,34.3
13,2023-03-23T00:30:00,2400.0,42.79,6.0312,0.004,0.03,-0.017,63.0,56.0,59.0,12.3,1504.9,101.2,0.0,-0.6,2392.844,13.34,0.03,7.6
13,2023-03-23T01:00:00,2400.0,42.79,6.0312,0.0,0.027,-0.015,62.0,56.0,60.0,12.3,1504.9,97.4,-0.4,-0.5,2392.907,13.34,0.026,0.0
13,2023-03-23T01:30:00,2400.0,42.79,6.0312,0.01,0.069,-0.029,63.0,55.0,58.0,12.3,1504.9,97.1,-0.2,-0.5,2392.893,13.34,0.069,8.2
13,2023-03-23T02:00:00,2400.0,42.79,6.0312,0.03,0.039,-0.01,64.0,55.0,57.0,12.3,1504.9,90.2,0.3,-0.6,2392.844,13.34,0.049,37.6
13,2023-03-23T02:30:00,2400.0,42.79,6.0312,0.046,0.045,-0.013,59.0,56.0,56.0,12.3,1504.9,92.3,-0.7,-0.4,2392.821,13.34,0.064,45.6
13,2023-03-23T03:00:00,2400.0,42.79,6.0312,0.036,0.057,-0.008,62.0,54.0,55.0,12.3,1504.9,93.4,0.0,-0.5,2392.833,13.34,0.067,32.3
13,2023-03-23T03:30:00,2400.0,42.79,6.0312,0.048,0.046,-0.011,61.0,54.0,59.0,12.3,1504.9,90.1,-0.2,-0.6,2392.881,13.34,0.066,46.2
13,2023-03-23T04:00:00,2400.0,42.79,6.0312,0.057,0.031,-0.008,61.0,54.0,56.0,12.3,1504.9,97.5,0.0,-0.7,2392.861,13.34,0.064,61.5
13,2023-03-23T04:30:00,2400.0,42.79,6.0312,0.054,0.051,0.0,61.0,56.0,56.0,12.3,1504.9,94.2,-0.2,-0.6,2392.931,13.34,0.074,46.6
13,2023-03-23T05:00:00,2400.0,42.79,6.0312,0.066,0.038,0.007,63.0,55.0,56.0,12.3,1504.9,98.5,-0.2,-0.6,2392.994,13.34,0.076,60.1
13,2023-03-23T05:30:00,2400.0,42.79,6.0312,0.07,0.031,-0.02,62.0,52.0,56.0,12.3,1504.9,109.6,-0.5,-0.6,2392.996,13.34,0.076,66.1
13,2023-03-23T06:00:00,2400.0,42.79,6.0312,0.057,0.046,-0.019,60.0,55.0,55.0,12.3,1504.9,94.0,-0.1,-0.6,2393.032,13.34,0.073,51.1
13,2023-03-23T06:30:00,2400.0,42.79,6.0312,0.075,0.033,-0.024,61.0,56.0,58.0,12.2,1504.9,116.2,-0.6,-0.6,2393.078,13.34,0.081,66.3
13,2023-03-23T07:00:00,2400.0,42.79,6.0312,0.063,0.05,0.008,62.0,58.0,58.0,12.3,1504.9,102.5,-0.4,-0.6,2393.161,13.34,0.08,51.6
13,2023-03-23T07:30:00,2400.0,42.79,6.0312,0.077,0.032,-0.012,62.0,55.0,54.0,12.3,1504.9,102.7,-0.8,-0.3,2393.107,13.34,0.083,67.4
13,2023-03-23T08:00:00,2400.0,42.79,6.0312,0.07,0.017,-0.013,61.0,57.0,59.0,12.2,1504.9,110.9,-0.5,-0.5,2393.128,13.34,0.072,76.3
13,2023-03-23T08:30:00,2400.0,42.79,6.0312,0.09,-0.001,0.016,63.0,57.0,55.0,12.3,1504.9,112.4,-0.8,-0.7,2393.189,13.34,0.089,90.6
13,2023-03-23T09:00:00,2400.0,42.79,6.0312,0.081,0.003,-0.012,63.0,58.0,58.0,12.3,1504.9,111.7,-0.4,-0.7,2393.152,13.34,0.081,87.9
13,2023-03-23T09:30:00,2400.0,42.79,6.0312,0.073,0.001,0.007,64.0,55.0,59.0,12.3,1504.9,125.0,0.3,-0.8,2393.136,13.34,0.073,89.2
13,2023-03-23T10:00:00,2400.0,42.79,6.0312,0.067,-0.017,-0.01,61.0,55.0,57.0,12.2,1504.9,133.0,-0.3,-0.8,2393.138,13.34,0.069,104.2
13,2023-03-23T10:30:00,2400.0,42.79,6.0312,0.07,-0.008,-0.031,61.0,52.0,57.0,12.2,1504.9,129.9,-0.2,-0.4,2393.085,13.34,0.07,96.5
13,2023-03-23T11:00:00,2400.0,42.79,6.0312,0.08,0.011,-0.009,62.0,57.0,60.0,12.3,1504.9,108.6,-0.3,-0.5,2393.04,13.34,0.08,82.2
13,2023-03-23T11:30:00,2400.0,42.79,6.0312,0.085,-0.024,-0.01,65.0,57.0,60.0,12.2,1504.9,132.0,-0.6,-0.5,2393.021,13.34,0.088,105.8
13,2023-03-23T12:00:00,2400.0,42.79,6.0312,0.045,-0.04,0.002,62.0,57.0,61.0,12.3,1504.9,145.8,-0.2,-1.0,2393.028,13.34,0.06,131.6
13,2023-03-23T12:30:00,2400.0,42.79,6.0312,0.045,-0.039,-0.021,62.0,54.0,57.0,12.2,1504.9,138.4,-0.2,-0.9,2393.004,13.34,0.059,130.9
13,2023-03-23T13:00:00,2400.0,42.79,6.0312,0.046,-0.051,-0.007,62.0,55.0,56.0,12.3,1504.9,130.7,-0.2,-0.8,2392.978,13.34,0.068,138.0
13,2023-03-23T13:30:00,2400.0,42.79,6.0312,0.035,-0.02,-0.011,63.0,58.0,59.0,12.2,1504.9,107.4,-0.1,-0.6,2392.939,13.34,0.04,119.7
13,2023-03-23T14:00:00,2400.0,42.79,6.0312,0.019,-0.023,-0.024,63.0,58.0,58.0,12.3,1504.9,105.9,-0.3,-0.5,2392.921,13.34,0.029,140.4
13,2023-03-23T14:30:00,2400.0,42.79,6.0312,0.054,-0.025,0.0,63.0,56.0,60.0,12.3,1504.9,116.3,-0.3,-0.7,2392.987,13.34,0.059,114.8
13,2023-03-23T15:00:00,2400.0,42.79,6.0312,0.029,-0.019,-0.025,67.0,57.0,59.0,12.2,1504.9,115.2,-0.2,-0.7,2392.901,13.34,0.034,123.2
13,2023-03-23T15:30:00,2400.0,42.79,6.0312,0.043,0.002,0.005,65.0,56.0,57.0,12.2,1504.9,111.0,-0.3,-0.7,2392.864,13.34,0.043,87.3
13,2023-03-23T16:00:00,2400.0,42.79,6.0312,0.025,-0.013,0.007,60.0,54.0,58.0,12.3,1504.9,112.5,-0.3,-0.8,2392.897,13.34,0.028,117.5
13,2023-03-23T16:30:00,2400.0,42.79,6.0312,0.02,0.011,-0.01,66.0,55.0,57.0,12.3,1504.9,110.9,-0.4,-0.8,2392.897,13.34,0.022,61.2
13,2023-03-23T17:00:00,2400.0,42.79,6.0312,0.036,0.031,-0.007,62.0,57.0,56.0,12.2,1504.9,112.2,-0.3,-0.8,2392.975,13.34,0.047,49.3
13,2023-03-23T17:30:00,2400.0,42.79,6.0312,0.01,0.03,-0.014,61.0,56.0,59.0,12.3,1504.9,112.3,-0.1,-0.7,2392.964,13.34,0.031,18.4
13,2023-03-23T18:00:00,2400.0,42.79,6.0312,0.05,0.023,-0.002,64.0,56.0,57.0,12.2,1504.9,108.8,-0.6,-0.7,2392.996,13.34,0.055,65.3
13,2023-03-23T18:30:00,2400.0,42.79,6.0312,0.024,0.022,-0.002,63.0,57.0,58.0,12.3,1504.9,108.4,-0.8,-0.8,2393.009,13.34,0.032,47.5
13,2023-03-23T19:00:00,2400.0,42.79,6.0312,0.028,0.031,-0.001,63.0,57.0,58.0,12.3,1504.9,103.0,-0.4,-0.8,2393.099,13.34,0.041,42.1
13,2023-03-23T19:30:00,2400.0,42.79,6.0312,0.053,0.042,-0.007,62.0,55.0,58.0,12.3,1504.9,98.4,-0.7,-0.6,2393.106,13.34,0.067,51.6
13,2023-03-23T20:00:00,2400.0,42.79,6.0312,0.072,0.036,-0.001,65.0,56.0,61.0,12.2,1504.9,100.8,-0.2,-0.7,2393.089,13.34,0.08,63.4
13,2023-03-23T20:30:00,2400.0,42.79,6.0312,0.063,0.033,-0.006,63.0,58.0,60.0,12.3,1504.9,104.1,-0.5,-0.6,2393.112,13.34,0.071,62.4
13,2023-03-23T21:00:00,2400.0,42.79,6.0312,0.069,0.061,-0.003,62.0,55.0,59.0,12.2,1504.9,91.1,-0.1,-0.6,2393.072,13.34,0.092,48.5
13,2023-03-23T21:30:00,2400.0,42.79,6.0312,0.073,0.03,-0.008,62.0,55.0,57.0,12.2,1504.9,98.0,0.1,-0.6,2393.076,13.34,0.078,67.7
13,2023-03-23T22:00:00,2400.0,42.79,6.0312,0.079,0.009,0.008,61.0,54.0,56.0,12.3,1504.9,107.1,-1.1,-0.6,2393.078,13.34,0.079,83.5
13,2023-03-23T22:30:00,2400.0,42.79,6.0312,0.087,0.058,-0.009,63.0,56.0,57.0,12.3,1504.9,86.2,-0.7,-0.6,2393.124,13.34,0.104,56.3
13,2023-03-23T23:00:00,2400.0,42.79,6.0312,0.071,0.02,0.003,61.0,55.0,58.0,12.2,1504.9,107.1,0.4,-0.7,2392.993,13.34,0.073,74.3
